This demonstration page uses our WeatherBlox Daily Observations layout. Learn more.

Left ArrowRight Arrow

44.8408, -93.29828

Hourly Observations for September 7, 2016

Temp ( °F °C ) Dew Point ( °F °C ) Humidity (%) Winds ( mph kmh ) Pressure ( in mb ) Visibility ( mi km ) Precip ( " mm )
12:24 am 00:24 Cloudy 72 22 68 20 88 88 SE 5 7 29.94 1014 7 11 0.00 0.00
12:53 am 00:53 Cloudy 71 21.7 68 20 90 90 Calm 29.96 1015 10 16 0.00 0.00
1:20 am 01:20 Cloudy 72 22 66 19 83 83 E 3 6 29.94 1014 10 16 0.00 0.00
1:37 am 01:37 Mostly Cloudy 71 21.7 67 19.4 87 87 ENE 5 7 29.94 1014 10 16 0.00 0.00
1:53 am 01:53 Cloudy 71 21.7 68 20 90 90 E 5 7 29.94 1014 10 16 0.00 0.00
2:27 am 02:27 Mostly Cloudy 70 21.1 67 19.4 90 90 E 6 9 29.94 1014 10 16 0.00 0.00
2:53 am 02:53 Cloudy 70 21.1 68 20 93 93 NNE 6 9 29.93 1014 10 16 0.00 0.00
3:50 am 03:50 Cloudy 70 21 68 20 94 94 ENE 3 6 29.94 1014 10 16 0.00 0.00
3:53 am 03:53 Cloudy 70 21.1 68 20 93 93 Calm 29.93 1014 10 16 0.00 0.00
4:25 am 04:25 Cloudy 70 21.1 67 19.4 90 90 N 5 7 29.94 1014 9 14 0.00 0.00
4:38 am 04:38 Cloudy 70 21 66 19 88 88 N 3 6 29.94 1014 10 16 0.00 0.00
4:53 am 04:53 Cloudy 70 21.1 68 20 93 93 N 3 6 29.93 1014 10 16 0.00 0.00
5:46 am 05:46 Cloudy 70 21 68 20 94 94 VRB 5 7 29.94 1014 10 16 0.00 0.00
5:53 am 05:53 Cloudy 70 21.1 68 20 93 93 N 3 6 29.95 1014 10 16 0.00 0.00
6:13 am 06:13 Cloudy 70 21.1 68 20 93 93 NNE 5 7 29.94 1014 10 16 0.00 0.00
6:35 am 06:35 Cloudy 70 21.1 67 19.4 90 90 NE 5 7 29.94 1014 9 14 0.00 0.00
6:53 am 06:53 Cloudy 70 21.1 68 20 93 93 ENE 6 9 29.95 1014 9 14 0.00 0.00
7:13 am 07:13 Cloudy 70 21.1 67 19.4 90 90 NNE 5 7 29.94 1014 9 14 0.00 0.00
7:40 am 07:40 Cloudy 70 21.1 67 19.4 90 90 ESE 6 9 29.94 1014 8 13 0.00 0.00
7:53 am 07:53 Cloudy with Light Rain 70 21.1 67 19.4 90 90 E 8 13 29.96 1015 7 11 0.00 0.03
8:17 am 08:17 Cloudy with Light Rain 70 21.1 67 19.4 90 90 E 12 19 29.91 1013 8 13 0.00 0.03
8:32 am 08:32 Cloudy 70 21 66 19 88 88 NE 8 13 29.91 1013 8 13 0.00 0.00
8:53 am 08:53 Cloudy 70 21.1 67 19.4 90 90 N 6 9 29.92 1013 8 13 0.00 0.03
9:14 am 09:14 Cloudy with Light Rain 70 21 66 19 88 88 Calm 29.94 1014 10 16 0.00 0.00
9:53 am 09:53 Cloudy with Light Rain 68 20 66 18.9 93 93 NE 9 15 29.96 1014 4 6 0.01 0.25
10:01 am 10:01 Cloudy with Mist and Fog 69 20.6 66 18.9 90 90 NE 7 11 29.94 1014 4 6 0.00 0.03
10:53 am 10:53 Cloudy 70 21.1 67 19.4 90 90 ENE 8 13 29.94 1014 8 13 0.01 0.25
11:53 am 11:53 Cloudy 71 21.7 68 20 90 90 E 7 11 29.92 1013 10 16 0.00 0.00
12:20 pm 12:20 Cloudy 72 22 66 19 83 83 NNE 3 6 29.94 1014 10 16 0.00 0.00
12:53 pm 12:53 Cloudy 71 21.7 67 19.4 87 87 NNW 8 13 29.93 1014 10 16 0.00 0.03
1:36 pm 13:36 Cloudy 73 23 68 20 83 83 N 5 7 29.91 1013 10 16 0.00 0.00
1:53 pm 13:53 Cloudy 73 22.8 68 20 84 84 NE 8 13 29.93 1014 10 16 0.00 0.00
2:07 pm 14:07 Cloudy 73 22.8 68 20 84 84 ENE 7 11 29.91 1013 10 16 0.00 0.00
2:53 pm 14:53 Cloudy 74 23.3 67 19.4 79 79 ENE 3 6 29.91 1013 10 16 0.00 0.00
3:53 pm 15:53 Cloudy 74 23.3 67 19.4 79 79 ENE 6 9 29.88 1012 10 16 0.00 0.00
4:53 pm 16:53 Mostly Cloudy 76 24.4 67 19.4 74 74 VRB 7 11 29.86 1011 10 16 0.00 0.00
5:53 pm 17:53 Mostly Cloudy 76 24.4 66 18.9 72 72 SSE 7 11 29.84 1011 10 16 0.00 0.00
6:53 pm 18:53 Mostly Cloudy 75 23.9 67 19.4 76 76 SSE 6 9 29.85 1011 10 16 0.00 0.00
7:53 pm 19:53 Mostly Cloudy 74 23.3 67 19.4 79 79 SSE 7 11 29.86 1011 10 16 0.00 0.00
8:53 pm 20:53 Partly Cloudy 72 22.2 68 20 87 87 SE 7 11 29.84 1011 10 16 0.00 0.00
9:53 pm 21:53 Mostly Cloudy 72 22.2 67 19.4 84 84 SSE 7 11 29.84 1010 10 16 0.00 0.00
10:53 pm 22:53 Mostly Cloudy 70 21.1 67 19.4 90 90 SSE 7 11 29.82 1010 10 16 0.00 0.00
11:53 pm 23:53 Mostly Cloudy 71 21.7 67 19.4 87 87 S 8 13 29.82 1010 10 16 0.00 0.00

Powered by AerisWeather